{"data":{"norad_id":61866,"epoch":"2026-05-24T19:02:50.020800Z","epoch_age_seconds":86071,"freshness":"FRESH","line1":"1 61866U 24202X   26144.79363450  .00000815  00000+0  39142-4 0  9997","line2":"2 61866  43.0027 168.4635 0001523 268.8960  91.1717 15.27578369 86977","mean_motion":15.27578369,"eccentricity":0.0001523,"inclination_deg":43.0027,"raan_deg":168.4635,"arg_perigee_deg":268.896,"mean_anomaly_deg":91.1717,"bstar":3.9142e-5,"rev_number":8697,"period_min":94.266849362542,"perigee_km":482.00902045852,"apogee_km":484.09893923098,"semimajor_km":6861.1909798447,"source":"CELESTRAK","updated_at":"2026-05-25T13:38:19.472571Z"}}